SCP
0 0 0 0 0 0 0 0 0 0 0 0 0 0 0 0 0 0 0 0 0 0 0 0 0 0 0 0 0 0 0 0 0 0 0 0 0 0 0 0 0 0 0
0 0 0 0 0 0 0 0 0 0 0 0 0 0 0 0 0 0 0 0 0 0 0 0 0 0 0 0 0 0 0 0 0 0 0 0 0 0 0 0 0 0 0
0 0 0 0 0 0 0 0 0 0 0 0 0 0 0 0 0 0 0 0 0 0 0 0 0 0 0 0 0 0 0 0 0 0 0 0 0 0 0 0 0 0 0
0 0 0 0 0 0 0 0 0 0 0 0 0 0 0 0 0 0 0 0 0 0 0 0 0 0 0 0 0 0 0 0 0 0 0 0 0 0 0 0 0 0 0
0 0 0 0 0 0 0 0 0 0 0 0 0 0 0 0 0 0 0 0 0 0 0 0 0 0 0 0 0 0 0 0 0 0 0 0 0 0 0 0 0 0 0
0 0 0 0 0 0 0 0 0 0 0 0 0 0 0 0 0 0 0 0 0 0 0 0 0 0 0 0 0 0 0 0 0 0 0 0 0 0 0 0 0 0 0
0 0 0 0 0 0 0 0 0 0 0 0 0 0 0 0 0 0 0 0 0 0 0 0 0 0 0 0 0 0 0 0 0 0 0 0 0 0 0 0 0 0 0
0 0 0 0 0 0 0 0 0 0 0 0 0 0 0 0 0 0 0 0 0 0 0 0 0 0 0 0 0 0 0 0 0 0 0 0 0 0 0 0 0 0 0
0 0 0 0 0 0 0 0 0 0 0 0 0 0 0 0 0 0 0 0 0 0 0 0 0 0 0 0 0 0 0 0 0 0 0 0 0 0 0 0 0 0 0
0 0 0 0 0 0 0 0 0 0 0 0 0 0 0 0 0 0 0 0 0 0 0 0 0 0 0 0 0 0 0 0 0 0 0 0 0 0 0 0 0 0 0
0 0 0 0 0 0 0 0 0 0 0 0 0 0 0 0 0 0 0 0 0 0 0 0 0 0 0 0 0 0 0 0 0 0 0 0 0 0 0 0 0 0 0
0 0 0 0 0 0 0 0 0 0 0 0 0 0 0 0 0 0 0 0 0 0 0 0 0 0 0 0 0 0 0 0 0 0 0 0 0 0 0 0 0 0 0
0 0 0 0 0 0 0 0 0 0 0 0 0 0 0 0 0 0 0 0 0 0 0 0 0 0 0 0 0 0 0 0 0 0 0 0 0 0 0 0 0 0 0
0 0 0 0 0 0 0 0 0 0 0 0 0 0 0 0 0 0 0 0 0 0 0 0 0 0 0 0 0 0 0 0 0 0 0 0 0 0 0 0 0 0 0
0 0 0 0 0 0 0 0 0 0 0 0 0 0 0 0 0 0 0 0 0 0 0 0 0 0 0 0 0 0 0 0 0 0 0 0 0 0 0 0 0 0 0
0 0 0 0 0 0 0 0 0 0 0 0 0 0 0 0 0 0 0 0 0 0 0 0 0 0 0 0 0 0 0 0 0 0 0 0 0 0 0 0 0 0 0
0 0 0 0 0 0 0 0 0 0 0 0 0 0 0 0 0 0 0 0 0 0 0 0 0 0 0 0 0 0 0 0 0 0 0 0 0 0 0 0 0 0 0
0 0 0 0 0 0 0 0 0 0 0 0 0 0 0 0 0 0 0 0 0 0 0 0 0 0 0 0 0 0 0 0 0 0 0 0 0 0 0 0 0 0 0
0 0 0 0 0 0 0 0 0 0 0 0 0 0 0 0 0 0 0 0 0 0 0 0 0 0 0 0 0 0 0 0 0 0 0 0 0 0 0 0 0 0 0
0 0 0 0 0 0 0 0 0 0 0 0 0 0 0 0 0 0 0 0 0 0 0 0 0 0 0 0 0 0 0 0 0 0 0 0 0 0 0 0 0 0 0
0 0 0 0 0 0 0 0 0 0 0 0 0 0 0 0 0 0 0 0 0 0 0 0 0 0 0 0 0 0 0 0 0 0 0 0 0 0 0 0 0 0 0
0 0 0 0 0 0 0 0 0 0 0 0 0 0 0 0 0 0 0 0 0 0 0 0 0 0 0 0 0 0 0 0 0 0 0 0 0 0 0 0 0 0 0
0 0 0 0 0 0 0 0 0 0 0 0 0 0 0 0 0 0 0 0 0 0 0 0 0 0 0 0 0 0 0 0 0 0 0 0 0 0 0 0 0 0 0
0 0 0 0 0 0 0 0 0 0 0 0 0 0 0 0 0 0 0 0 0 0 0 0 0 0 0 0 0 0 0 0 0 0 0 0 0 0 0 0 0 0 0
0 0 0 0 0 0 0 0 0 0 0 0 0 0 0 0 0 0 0 0 0 0 0 0 0 0 0 0 0 0 0 0 0 0 0 0 0 0 0 0 0 0 0
0 0 0 0 0 0 0 0 0 0 0 0 0 0 0 0 0 0 0 0 0 0 0 0 0 0 0 0 0 0 0 0 0 0 0 0 0 0 0 0 0 0 0
Wind_Speed
1 2 7 8 9 9 10 11 11 12 12 13 14 14 15 15 15 14 14 14 13 13 12 12 12 11 11 11 11 10 10 10 9 10 10 10 10 10 10 10 9 7 10
3 4 8 9 9 10 10 10 11 11 12 13 13 14 14 14 14 14 14 13 13 12 12 11 11 11 10 10 10 9 9 9 9 9 9 8 9 9 9 9 9 6 9
4 3 7 10 10 10 10 10 10 11 12 12 12 13 13 13 13 13 13 13 12 12 11 11 11 10 10 9 9 8 8 7 8 8 8 5 5 8 8 8 8 8 9
4 3 6 10 10 10 10 10 10 11 11 11 12 12 12 13 12 12 12 12 11 11 11 11 10 9 9 8 8 8 7 7 7 7 4 4 4 7 7 8 8 8 8
4 4 5 10 10 10 10 10 10 10 10 10 11 11 12 11 11 11 11 11 10 10 9 9 9 8 8 7 7 6 6 6 6 5 4 3 3 6 7 7 8 8 8
4 3 4 9 9 10 10 10 10 10 9 9 9 9 10 10 10 10 10 10 9 9 8 8 7 7 6 6 6 5 5 5 4 3 3 3 3 5 6 7 7 8 8
4 3 3 9 9 9 9 10 10 9 9 8 8 8 8 8 9 9 9 8 8 8 7 6 6 6 5 5 5 5 5 4 3 3 3 3 4 6 6 6 7 8 8
4 3 3 7 8 8 8 9 9 9 8 8 7 7 7 7 7 7 7 7 6 6 6 5 5 5 5 4 4 4 4 4 3 3 3 3 5 6 6 6 6 7 8
4 3 2 2 4 7 7 7 8 7 7 7 6 6 6 6 6 6 6 6 5 5 5 4 4 4 4 3 4 4 4 4 2 2 3 3 5 6 6 6 6 7 8
3 2 2 2 3 2 3 6 6 6 6 5 5 5 4 4 3 4 4 4 5 4 4 4 4 4 4 4 4 4 4 3 2 2 2 3 6 7 7 6 7 7 8
2 1 2 2 2 2 2 3 4 5 4 3 2 3 2 1 1 0 1 2 3 3 4 4 4 4 3 3 4 4 3 1 2 2 2 5 7 7 7 7 7 8 8
3 2 1 2 1 2 1 1 1 1 2 1 1 1 1 1 1 0 1 2 2 3 3 4 4 3 2 1 2 2 1 2 2 2 3 7 7 8 8 7 7 8 8
3 2 2 2 1 2 1 1 1 1 1 1 1 1 1 1 1 1 1 1 1 1 1 1 1 1 1 1 1 1 1 1 1 2 3 7 7 8 8 8 8 8 8
3 3 2 2 2 1 1 1 1 1 1 1 0 1 1 0 0 1 1 1 1 1 1 1 1 1 2 2 2 2 2 1 1 2 3 7 7 8 9 8 8 8 8
4 4 3 3 3 2 1 1 1 1 0 0 0 0 1 1 0 0 1 1 1 1 1 1 1 1 2 2 2 2 2 2 2 2 2 6 6 7 8 8 9 9 9
5 5 4 3 3 3 2 1 1 1 1 0 0 0 0 1 1 0 1 1 1 1 1 1 1 1 1 1 2 2 2 2 3 3 3 4 5 6 6 7 8 8 9
5 5 4 4 3 3 3 2 1 1 1 1 1 0 0 1 1 0 0 1 1 1 1 1 1 1 1 1 1 2 2 2 3 3 3 2 2 5 6 7 7 7 8
5 4 4 4 4 3 3 2 1 1 1 1 1 0 1 1 1 1 1 1 1 0 0 0 0 0 1 1 1 1 1 2 3 3 2 2 2 2 4 7 7 7 7
6 5 5 4 4 3 3 2 2 2 1 1 1 0 1 1 0 1 1 1 1 0 0 1 0 0 0 1 1 1 1 1 2 2 2 2 2 2 2 4 6 6 7
5 4 4 4 3 3 2 2 1 1 0 0 1 1 1 0 0 0 0 1 1 1 1 0 0 0 0 1 1 1 1 1 1 1 2 1 1 2 2 2 2 4 6
5 5 5 4 4 3 2 2 1 1 1 0 1 1 1 1 0 0 0 1 1 0 1 1 0 0 0 0 1 1 1 1 0 1 1 1 1 1 1 2 2 2 3
7 6 5 4 4 4 3 2 2 1 1 1 1 1 1 1 1 1 1 0 0 0 1 1 0 0 0 1 1 1 1 2 2 1 1 0 1 1 1 1 2 2 2
8 7 6 5 4 3 3 2 2 2 1 1 1 1 1 1 1 1 1 1 1 1 1 1 0 1 1 0 1 1 1 1 2 2 1 1 1 1 2 2 2 3 3
8 7 6 5 4 4 4 3 3 2 2 2 1 1 1 1 1 1 1 1 1 1 1 1 1 1 2 1 0 0 1 2 1 2 2 1 2 2 2 2 2 2 2
7 6 6 5 5 4 4 4 4 2 2 1 0 0 1 1 1 1 1 1 1 1 1 1 1 1 2 2 1 1 1 0 1 1 2 2 2 2 2 2 2 2 3
6 6 6 6 5 5 5 5 5 4 3 2 1 1 1 1 1 1 1 1 1 1 2 2 2 2 2 2 1 1 1 1 1 2 2 2 3 3 2 2 2 2 3
Wind_Direction
179 165 148 134 130 124 121 121 119 119 120 124 129 132 135 139 140 140 139 138 138 136 134 132 131 130 129 130 130 131 131 130 130 130 130 130 131 129 127 125 122 120 122
154 157 150 138 134 130 127 125 123 122 123 125 130 133 135 138 141 141 139 140 139 137 135 133 133 131 129 131 134 135 137 138 137 137 134 131 132 134 135 133 133 131 131
135 155 149 142 137 132 128 125 124 122 123 126 130 133 137 136 138 141 142 142 141 139 137 136 136 135 135 133 132 135 139 142 143 141 133 125 136 142 143 144 144 140 139
122 130 140 139 136 132 129 126 124 123 124 125 129 134 138 138 140 143 145 144 144 142 141 141 142 141 140 137 136 138 142 145 145 143 130 134 146 152 152 153 152 149 148
103 108 138 135 134 132 128 125 125 124 125 126 129 135 139 140 143 145 148 147 147 146 147 147 147 147 145 144 143 144 146 154 155 146 135 141 150 161 162 163 162 159 158
103 104 137 136 134 130 126 125 125 124 124 126 129 133 138 141 143 144 145 148 150 152 154 155 155 155 155 154 153 155 158 158 144 137 147 156 165 174 173 173 169 169 168
114 110 137 137 133 131 130 126 124 123 127 128 128 130 135 140 144 145 147 151 155 157 161 166 167 167 165 166 167 168 170 169 143 141 153 167 180 186 186 184 179 176 174
112 102 124 140 138 135 134 132 130 129 131 131 132 131 134 139 146 148 152 155 160 163 169 175 180 184 178 180 179 177 185 184 161 163 170 178 187 192 192 188 183 182 182
96 94 92 125 137 139 138 135 136 134 134 134 133 130 131 138 146 153 159 163 173 180 183 189 197 200 195 196 198 197 195 197 162 176 195 191 194 196 194 189 190 192 191
88 87 89 85 88 109 128 137 137 135 134 134 134 133 132 136 144 160 165 176 186 194 196 198 208 218 215 213 213 212 207 193 180 196 200 204 205 204 205 202 200 198 196
114 87 88 91 88 96 116 146 141 140 138 140 134 134 118 72 62 117 190 198 201 207 214 217 221 227 228 224 222 219 220 188 197 209 210 217 217 212 211 208 205 204 203
165 165 118 111 107 101 131 108 85 98 98 90 82 81 66 59 41 14 299 257 236 233 236 231 227 228 231 231 228 226 200 198 212 222 221 220 220 215 214 211 212 212 210
174 171 157 149 132 124 111 103 87 83 91 89 77 75 65 51 17 359 345 322 312 272 272 251 224 198 220 217 214 211 200 211 217 231 231 232 225 218 216 212 217 218 217
161 183 179 167 152 154 141 123 112 99 99 100 59 75 94 74 9 335 320 317 319 299 272 237 215 214 216 219 214 211 210 215 226 230 231 237 232 223 221 221 221 220 219
176 188 188 174 169 166 148 149 132 116 111 97 36 33 148 159 230 289 316 317 309 311 262 249 240 238 222 215 214 211 220 231 238 239 241 240 242 233 228 228 222 223 222
185 187 187 178 182 165 161 162 147 138 139 102 2 296 195 188 214 271 325 315 310 298 253 236 250 246 245 228 230 225 227 232 235 239 244 241 241 241 238 231 227 229 227
186 183 181 178 166 165 172 174 152 147 148 177 248 297 292 251 239 229 257 299 302 307 280 237 266 239 237 231 232 233 227 228 231 234 238 239 239 239 238 234 232 234 230
174 174 178 175 163 166 163 161 139 134 146 184 221 274 277 256 223 210 241 282 292 335 317 238 243 236 253 261 264 263 253 241 236 231 226 223 227 236 236 233 231 235 236
176 173 170 166 160 168 162 150 139 137 157 201 204 208 258 269 252 209 259 290 313 338 300 271 352 160 247 283 273 260 252 243 239 232 225 232 232 231 236 240 235 236 241
171 168 167 162 157 151 143 127 105 104 167 215 224 239 252 261 243 174 260 318 358 19 3 31 102 114 195 246 263 292 285 269 233 228 231 239 243 234 229 236 242 248 248
168 169 172 169 167 153 150 155 153 193 221 234 238 245 248 256 249 168 292 348 358 347 298 291 253 114 30 108 87 358 342 336 317 260 248 250 286 268 234 220 235 250 263
182 182 180 181 174 171 169 159 151 151 194 214 284 304 282 277 274 236 226 248 281 325 330 318 276 180 142 100 118 93 353 342 335 318 308 284 308 302 270 249 244 252 263
189 188 186 184 178 171 156 125 105 78 49 33 340 303 294 278 261 249 229 222 222 197 251 291 179 169 172 110 128 146 152 254 303 312 298 301 306 292 277 264 258 261 259
193 183 179 178 176 169 156 152 156 165 189 221 223 258 293 287 280 265 249 240 232 227 236 245 168 167 165 200 208 210 196 185 203 303 308 289 282 276 272 276 271 263 263
182 179 180 174 175 168 164 167 166 182 201 211 177 297 303 310 305 283 266 261 235 228 227 235 218 175 179 196 197 199 204 226 205 217 282 302 301 272 262 259 262 269 268
177 175 174 175 186 178 173 173 179 185 189 185 206 258 287 299 302 306 302 295 253 236 224 206 214 188 192 192 200 200 196 202 208 209 247 276 286 281 272 259 260 265 262